Wind_Speed
17 19 22 21 14 18 20 19 10 9 11 16 14 23 19 19 22 17 16 28 26 23 25 21 18 18 16 15 17 15 16 18 17 15 15 19 20 20 20 17 15 13 11 11
17 26 24 18 21 23 25 20 19 17 16 19 16 28 21 21 19 15 20 24 28 24 24 22 21 20 14 16 19 16 17 20 17 16 20 20 18 19 16 15 14 14 11 9
22 19 18 21 22 26 26 25 22 12 14 19 18 20 19 24 15 27 23 21 26 29 27 25 23 22 17 17 19 18 18 21 19 16 22 20 20 17 18 15 13 16 14 11
24 22 25 27 29 23 31 23 24 19 9 21 21 18 32 27 25 35 26 27 30 30 30 27 24 23 19 20 21 19 18 21 21 20 20 18 16 14 15 13 12 15 13 13
26 24 27 31 30 27 28 29 29 20 14 23 24 17 26 34 36 39 33 20 32 32 34 31 26 23 21 19 21 21 22 22 22 19 21 19 17 17 14 12 12 14 15 12
24 27 28 30 30 29 28 31 31 29 15 15 28 28 28 36 37 40 28 21 17 35 36 33 29 24 25 22 22 23 23 23 24 23 24 24 20 23 21 17 18 14 14 13
23 26 30 27 33 32 32 32 23 14 12 5 23 26 33 24 33 33 30 27 22 31 41 36 35 30 24 26 23 24 24 24 24 22 23 23 23 20 18 16 16 15 14 13
26 27 26 25 32 34 36 30 24 10 7 11 27 18 38 27 25 29 30 26 26 29 43 41 35 33 23 26 25 24 24 24 25 24 20 23 24 23 20 19 13 14 13 14
17 23 21 32 32 32 39 41 34 33 35 21 23 21 31 28 22 26 28 33 29 26 35 43 36 32 29 22 27 24 25 24 24 22 21 24 26 24 21 18 18 15 16 15
27 25 22 24 30 35 39 40 31 32 11 14 17 19 18 22 28 28 29 38 29 28 29 32 25 29 28 21 19 26 26 27 24 24 22 23 23 24 22 20 19 19 18 16
20 19 26 25 23 26 26 39 42 32 27 10 6 16 27 31 26 26 29 34 34 28 26 30 29 27 26 22 16 20 26 29 28 27 25 25 26 26 26 22 21 19 22 20
16 18 21 32 31 24 27 31 39 32 27 27 20 38 30 17 12 29 15 28 32 24 25 30 30 23 24 27 19 12 10 27 30 29 27 25 24 26 26 25 23 23 23 23
21 11 20 23 29 21 19 20 19 33 35 37 16 20 18 23 17 21 14 34 30 29 30 34 28 32 27 25 24 16 11 18 28 29 29 27 26 26 27 25 25 25 27 26
15 24 16 24 35 38 41 38 30 24 30 33 36 36 22 20 23 15 14 25 26 34 48 35 33 31 25 25 26 20 15 11 19 29 29 26 25 25 25 24 23 23 24 27
11 21 22 25 36 31 29 29 31 26 20 28 32 22 26 30 27 35 38 25 21 22 36 39 39 38 31 23 21 21 17 13 12 17 23 26 24 25 25 26 25 24 24 24
17 23 23 24 31 25 29 32 28 25 22 26 32 21 10 17 33 40 36 42 19 14 30 42 42 38 39 30 26 23 20 19 15 16 16 16 21 24 24 25 26 26 26 26
24 20 20 30 27 26 22 19 21 26 20 29 31 22 15 24 28 26 15 20 34 10 18 35 41 39 40 19 42 32 27 24 23 22 21 22 22 24 25 26 27 28 27 28
26 24 22 31 27 13 17 21 24 22 14 22 14 22 30 26 31 22 10 5 16 20 15 20 23 26 29 38 40 37 34 33 32 30 31 29 26 25 27 28 29 28 28 28
37 26 26 28 23 23 29 19 18 20 11 9 5 24 22 24 25 20 19 21 26 26 15 15 24 24 26 29 32 31 30 30 31 31 32 33 30 27 29 32 31 31 31 30
7 28 25 26 16 12 20 19 20 25 13 4 4 4 19 23 22 25 27 30 26 26 17 13 11 20 27 30 29 27 28 34 22 27 30 30 30 30 32 30 33 35 35 34
13 19 23 31 25 20 14 18 23 16 11 5 6 10 23 23 21 19 19 20 19 17 20 18 14 12 15 19 20 23 25 32 36 23 28 25 25 29 29 32 38 39 38 37
14 12 22 16 26 20 15 15 10 9 14 10 15 8 8 14 14 19 20 18 17 18 18 18 19 19 17 21 24 26 23 26 30 34 21 17 22 23 26 29 30 32 25 33
11 11 17 9 7 13 9 6 6 8 18 14 6 6 6 8 11 13 11 12 14 15 17 18 19 20 21 18 22 29 30 33 29 28 37 27 11 13 21 25 26 27 27 25
15 12 20 27 20 20 14 10 7 6 12 12 6 6 6 3 4 12 9 7 7 5 3 4 8 12 15 17 19 26 25 26 32 33 34 32 37 34 29 23 21 24 23 21
20 18 9 15 24 18 9 15 11 5 9 10 6 10 6 4 8 9 11 11 8 5 2 2 1 2 4 7 12 21 21 22 24 25 25 25 32 30 30 32 23 25 25 21
19 12 13 10 9 23 13 18 15 11 6 8 9 1 3 3 4 2 3 5 5 3 1 4 5 3 2 3 6 7 10 13 13 16 20 21 23 24 25 28 28 26 22 23
Wind_Direction
240 255 255 257 247 258 271 287 285 270 297 227 227 222 225 206 210 203 199 178 198 205 209 222 217 215 209 187 189 183 171 173 172 176 172 159 159 145 147 151 149 155 153 149
237 244 256 256 262 264 268 265 276 280 255 225 231 219 226 207 223 230 210 202 198 206 216 221 218 216 214 194 196 192 177 176 174 181 164 161 162 154 148 156 159 166 174 148
239 248 249 252 262 264 269 267 264 262 266 248 249 205 210 211 215 223 219 223 206 204 217 225 216 217 204 194 196 191 182 178 179 180 179 169 161 176 179 177 174 188 185 184
255 246 249 258 253 259 266 260 266 221 176 236 230 235 212 214 200 218 217 211 210 202 217 229 227 218 213 198 200 199 191 188 189 194 190 198 191 185 170 176 187 192 195 193
264 256 258 261 257 254 259 260 268 260 222 243 258 262 253 218 198 214 218 215 213 204 217 224 232 229 217 207 207 207 201 195 195 199 193 201 189 179 189 202 212 193 198 203
269 261 256 261 261 257 260 265 268 274 232 255 254 270 261 202 212 214 222 228 221 202 215 226 236 237 235 215 208 207 205 206 202 198 201 196 194 199 209 214 199 193 199 206
289 275 261 258 263 253 258 263 258 274 261 215 243 253 251 228 213 221 228 229 226 204 210 221 225 232 238 220 209 207 208 212 206 206 202 201 195 201 210 211 209 195 207 211
289 276 276 270 254 260 263 260 242 244 236 262 245 255 256 237 228 225 220 233 222 204 202 216 225 233 239 230 215 204 210 207 207 209 206 205 209 214 213 203 205 200 210 223
327 316 292 265 260 249 254 263 256 247 258 274 262 267 266 227 196 209 219 210 211 212 206 214 226 229 235 238 229 209 207 208 211 215 211 211 212 214 221 210 202 215 230 230
307 321 292 284 265 253 252 250 263 252 235 251 262 274 261 202 202 204 211 210 209 209 210 214 223 226 229 234 246 228 205 208 212 217 213 216 218 217 224 223 215 208 228 233
323 310 307 280 283 269 261 248 251 252 249 237 263 266 262 246 198 195 212 211 200 201 210 204 224 233 222 231 242 247 220 210 210 214 218 214 212 218 226 227 231 226 230 237
310 307 305 291 275 268 280 275 246 244 247 264 266 254 269 225 218 251 203 214 211 214 216 206 220 226 219 224 236 240 244 220 217 217 217 217 221 222 228 231 229 231 237 251
313 312 329 289 263 269 275 300 286 256 237 244 254 269 207 228 223 183 201 201 197 222 210 202 215 222 224 222 234 245 260 222 216 219 220 217 218 222 227 231 232 232 239 243
286 286 290 275 281 292 308 306 308 307 226 234 248 257 221 240 218 231 216 183 196 209 203 201 204 218 222 226 233 236 248 235 209 215 221 222 223 225 231 234 236 236 238 244
296 301 291 286 284 304 304 302 303 300 289 231 245 263 257 209 245 214 203 199 204 202 187 192 203 206 220 224 233 236 248 261 222 208 216 227 226 229 230 237 239 241 241 240
267 287 305 292 276 308 293 304 296 297 280 274 244 267 270 221 204 205 209 222 200 173 170 195 196 199 203 204 224 229 243 253 254 240 233 233 234 234 234 239 243 244 247 251
273 261 291 284 275 316 302 310 299 294 284 305 233 253 219 183 217 202 178 209 216 187 193 185 194 193 207 229 216 217 220 235 251 257 245 239 234 236 236 238 241 244 247 247
273 264 259 266 294 292 267 294 305 290 331 288 317 193 168 220 208 220 255 305 181 256 232 188 198 208 212 193 205 210 210 220 232 244 251 248 242 238 240 241 244 245 248 251
270 251 250 254 265 276 285 298 314 345 320 8 132 198 183 203 217 221 213 194 196 219 208 206 206 194 201 203 203 203 214 222 227 228 238 243 248 246 246 246 246 248 248 250
248 243 233 244 270 271 264 270 282 305 301 178 230 157 208 195 188 177 172 182 193 208 222 216 202 206 219 235 238 237 240 235 234 241 242 243 247 250 246 248 249 249 249 249
340 288 238 233 246 259 270 287 285 314 296 230 212 202 196 203 186 191 193 197 203 208 216 232 238 236 228 236 241 251 256 246 257 267 256 250 256 258 256 253 254 252 251 244
308 319 280 279 232 253 283 292 287 260 310 273 260 284 244 215 208 189 186 190 206 220 229 236 246 251 245 236 244 244 230 231 234 240 265 269 262 262 261 257 258 264 272 226
302 279 249 254 262 259 253 268 263 228 263 281 319 1 47 208 179 179 165 167 185 200 213 226 242 248 252 246 235 237 243 241 226 234 237 264 285 292 265 261 267 267 267 269
294 285 266 246 262 267 236 241 265 271 250 262 323 27 66 105 133 143 145 148 154 146 172 209 225 227 232 235 239 237 244 245 244 242 246 251 250 261 283 265 260 264 263 263
283 255 257 255 286 240 216 216 233 261 284 282 276 85 149 184 144 147 130 134 119 95 74 24 49 135 215 225 228 238 243 242 242 241 240 240 246 247 258 259 259 265 256 257
286 262 245 273 279 257 252 195 188 163 162 50 235 337 29 241 235 200 150 129 119 125 55 350 3 325 277 236 236 223 219 227 229 244 240 235 234 231 237 240 235 245 256 261
Height
3164 3165 3163 3164 3167 3168 3169 3171 3169 3170 3173 3175 3170 3173 3174 3175 3177 3179 3181 3184 3187 3189 3191 3193 3195 3196 3198 3202 3204 3207 3211 3212 3215 3218 3221 3222 3222 3225 3228 3232 3235 3237 3239 3241
3162 3159 3162 3164 3165 3165 3166 3168 3167 3169 3168 3172 3170 3172 3173 3172 3173 3176 3179 3180 3184 3187 3188 3191 3193 3193 3197 3201 3203 3205 3209 3212 3215 3218 3221 3221 3224 3227 3230 3232 3235 3237 3239 3241
3158 3159 3162 3164 3164 3163 3162 3165 3165 3168 3171 3169 3169 3170 3169 3170 3172 3172 3177 3177 3180 3182 3184 3187 3190 3191 3195 3199 3202 3204 3207 3211 3213 3216 3218 3221 3223 3226 3229 3231 3234 3237 3238 3240
3155 3157 3157 3159 3161 3163 3160 3159 3162 3161 3167 3169 3162 3163 3161 3161 3165 3165 3171 3173 3176 3179 3181 3184 3187 3189 3192 3197 3201 3203 3206 3209 3211 3214 3218 3220 3223 3226 3229 3231 3233 3237 3238 3239
3152 3154 3156 3153 3155 3160 3159 3157 3158 3163 3156 3162 3158 3158 3153 3154 3159 3160 3165 3170 3173 3176 3177 3180 3183 3187 3190 3194 3198 3202 3205 3207 3209 3213 3215 3219 3221 3225 3227 3230 3232 3235 3237 3239
3148 3149 3150 3149 3151 3152 3156 3155 3154 3153 3153 3156 3151 3154 3145 3149 3151 3157 3161 3165 3168 3172 3174 3177 3181 3185 3186 3191 3194 3198 3203 3205 3207 3210 3213 3216 3221 3223 3225 3228 3230 3232 3235 3237
3144 3143 3143 3146 3147 3144 3148 3151 3149 3150 3148 3146 3148 3148 3141 3142 3144 3148 3155 3156 3162 3165 3169 3172 3175 3179 3183 3186 3190 3194 3198 3202 3206 3209 3211 3214 3217 3219 3222 3224 3227 3230 3233 3235
3139 3138 3141 3141 3142 3143 3140 3146 3145 3150 3147 3142 3142 3138 3134 3140 3139 3138 3147 3151 3155 3158 3163 3163 3168 3174 3179 3182 3185 3191 3194 3198 3202 3206 3210 3212 3214 3216 3218 3221 3225 3229 3231 3232
3138 3132 3132 3134 3136 3141 3134 3135 3140 3141 3141 3139 3135 3135 3134 3136 3138 3140 3142 3147 3150 3153 3156 3158 3164 3168 3174 3177 3180 3186 3191 3195 3198 3202 3206 3209 3211 3214 3217 3220 3222 3226 3226 3229
3138 3132 3129 3125 3128 3127 3132 3133 3136 3133 3136 3136 3131 3132 3134 3133 3131 3134 3135 3139 3145 3149 3154 3156 3158 3163 3169 3174 3177 3181 3187 3190 3195 3198 3202 3206 3209 3212 3215 3218 3220 3222 3224 3225
3134 3131 3128 3124 3122 3124 3125 3124 3126 3130 3127 3127 3130 3127 3130 3131 3130 3132 3132 3134 3139 3143 3148 3152 3154 3158 3165 3170 3172 3175 3182 3186 3189 3193 3197 3201 3205 3208 3212 3215 3218 3221 3221 3222
3131 3128 3125 3120 3114 3117 3118 3120 3121 3120 3122 3121 3124 3118 3123 3130 3126 3129 3133 3131 3135 3137 3140 3144 3147 3152 3158 3164 3168 3172 3176 3181 3184 3189 3194 3198 3202 3205 3207 3211 3215 3218 3220 3220
3128 3127 3123 3118 3112 3113 3114 3110 3110 3112 3115 3116 3121 3118 3117 3122 3125 3129 3131 3129 3130 3134 3135 3137 3142 3146 3154 3159 3164 3167 3171 3174 3180 3185 3189 3193 3197 3200 3203 3206 3210 3213 3215 3216
3126 3125 3127 3124 3115 3116 3112 3106 3105 3103 3104 3110 3111 3116 3117 3117 3115 3121 3123 3122 3124 3123 3135 3135 3134 3141 3148 3155 3160 3165 3168 3170 3175 3180 3184 3188 3192 3196 3199 3202 3205 3208 3211 3213
3124 3121 3121 3116 3109 3111 3109 3105 3103 3103 3102 3103 3106 3110 3112 3113 3115 3114 3115 3115 3127 3117 3124 3125 3131 3139 3146 3154 3160 3164 3166 3167 3171 3175 3179 3183 3187 3191 3194 3197 3200 3203 3205 3208
3119 3115 3114 3107 3104 3107 3103 3101 3100 3099 3097 3096 3101 3105 3101 3107 3104 3105 3109 3111 3119 3120 3119 3125 3129 3137 3139 3147 3156 3159 3162 3164 3166 3169 3174 3179 3182 3185 3189 3192 3195 3198 3200 3202
3114 3113 3112 3103 3103 3105 3102 3098 3091 3091 3096 3096 3092 3097 3101 3105 3108 3108 3113 3120 3115 3119 3126 3125 3128 3131 3137 3142 3150 3153 3157 3159 3161 3164 3169 3173 3176 3179 3183 3186 3189 3191 3194 3197
3106 3108 3110 3103 3103 3103 3096 3096 3096 3095 3094 3090 3087 3091 3096 3107 3108 3106 3110 3119 3124 3127 3123 3125 3129 3130 3133 3137 3145 3150 3156 3156 3157 3160 3163 3167 3170 3174 3177 3179 3182 3185 3188 3189
3101 3102 3103 3102 3102 3099 3092 3093 3094 3092 3091 3091 3089 3092 3093 3099 3104 3106 3108 3117 3123 3129 3123 3122 3126 3131 3137 3142 3143 3148 3150 3152 3154 3156 3157 3160 3164 3168 3170 3172 3175 3177 3179 3181
3089 3097 3099 3097 3097 3094 3094 3092 3093 3094 3093 3094 3092 3094 3098 3094 3095 3102 3106 3110 3115 3119 3120 3122 3123 3129 3132 3136 3139 3142 3143 3138 3127 3148 3152 3152 3155 3160 3163 3166 3167 3168 3170 3173
3093 3094 3092 3090 3092 3089 3091 3092 3094 3095 3097 3093 3093 3092 3092 3093 3096 3098 3101 3106 3111 3113 3115 3119 3124 3127 3129 3132 3133 3135 3137 3137 3141 3146 3148 3148 3150 3153 3156 3157 3158 3159 3162 3159
3093 3092 3089 3087 3087 3086 3089 3092 3093 3095 3093 3093 3089 3088 3082 3092 3093 3095 3099 3103 3106 3109 3112 3115 3118 3122 3124 3127 3129 3130 3131 3134 3136 3140 3144 3144 3145 3146 3149 3150 3148 3140 3140 3118
3090 3089 3086 3088 3084 3085 3086 3088 3089 3090 3095 3093 3091 3088 3094 3091 3094 3096 3097 3099 3101 3103 3106 3109 3112 3114 3116 3119 3121 3123 3125 3127 3131 3133 3136 3139 3140 3143 3146 3145 3144 3145 3147 3146
3085 3084 3083 3085 3084 3083 3084 3086 3084 3082 3087 3088 3088 3090 3093 3097 3100 3097 3098 3099 3099 3100 3101 3103 3105 3107 3109 3112 3115 3116 3118 3120 3122 3126 3128 3130 3130 3139 3143 3143 3139 3141 3143 3145
3082 3079 3080 3080 3079 3082 3081 3085 3085 3081 3080 3080 3091 3096 3101 3097 3100 3101 3101 3099 3098 3097 3099 3100 3103 3105 3108 3109 3109 3111 3114 3116 3118 3118 3120 3121 3123 3128 3136 3137 3135 3140 3142 3140
3074 3075 3077 3077 3074 3078 3080 3085 3086 3088 3093 3089 3097 3101 3099 3103 3103 3103 3101 3097 3097 3098 3097 3099 3102 3104 3106 3106 3108 3110 3111 3112 3114 3116 3118 3119 3119 3124 3125 3126 3126 3134 3133 3132